#timestamp,LO_Frequency,Hit,StdDev 
1513393215.2,286047002.0,N
1513393235.1,286047000.0,N
1513393236.0,286047000.0,N
1513393255.8,286046999.8,N
1513393275.7,286046999.8,N
1513393295.5,286047000.2,N
1513393315.3,286047000.5,N
1513393335.2,286047000.5,N
1513393355.9,286046999.7,N
1513393375.7,286047000.0,N
1513393395.6,286046999.0,N
1513393415.4,286046999.1,N
1513393435.3,286046998.2,N
1513393455.1,286047000.7,N
1513393456.0,286047000.7,N
1513393475.8,286046999.6,N
1513393495.7,286046998.9,N
1513393515.5,286047000.9,N
1513393535.3,286047000.5,N
1513393555.2,286046998.3,N
1513393575.0,286046998.7,N
1513393575.9,286046998.7,N
1513393595.8,286046999.5,N
1513393615.6,286046996.8,N
1513393635.4,286046999.3,N
1513393655.3,286047000.6,N
1513393675.1,286047000.6,N
1513393695.8,286046998.9,N
1513393715.7,286046999.0,N
1513393735.5,286046998.8,N
1513393755.4,286046996.6,Y
1513393775.2,286046999.6,P
1513393795.0,286047001.1,P
1513393795.9,286047001.1,N
1513393815.8,286047000.4,N
1513393835.6,286046998.6,N
1513393855.5,286046996.5,Y
1513393875.3,286046997.0,P
1513393895.1,286046996.5,N
1513393915.9,286046997.3,N
1513393935.7,286046996.9,N
1513393955.5,286046996.9,N
1513393975.4,286046999.6,N
1513393995.2,286046999.4,N
1513394015.1,286046994.9,Y
1513394016.0,286046994.9,P
1513394035.8,286046997.0,N
1513394055.6,286046997.1,N
1513394075.5,286046997.1,N
1513394095.3,286046997.0,N
1513394115.2,286046996.5,Y
1513394135.9,286046999.8,P
1513394155.7,286047000.5,N
1513394175.6,286047002.4,N
1513394195.4,286047004.0,N
1513394215.2,286047003.8,N
1513394235.1,286047001.6,N
1513394236.0,286047001.6,N
1513394255.8,286047004.1,N
1513394275.7,286047003.1,N
1513394295.5,286047003.1,N
1513394315.3,286047005.8,N
1513394335.2,286047005.0,N
1513394355.0,286047007.1,Y
1513394355.9,286047007.1,P
1513394375.8,286047004.5,N
1513394395.6,286047006.9,P
1513394415.4,286047006.5,Y
1513394435.3,286047001.6,P
1513394455.1,286047001.8,N
1513394475.9,286047003.8,N
1513394495.7,286047003.9,N
1513394515.5,286047006.0,Y
1513394535.4,286046999.8,P
1513394555.2,286047000.6,N
1513394575.0,286047002.5,N
1513394576.0,286047002.5,N
1513394595.8,286046999.7,N
1513394615.6,286047001.0,N
1513394635.5,286046999.6,N
1513394655.3,286046996.8,N
1513394675.1,286046999.6,N
1513394695.9,286046996.5,N
1513394715.7,286046998.3,N
1513394735.6,286047002.3,N
1513394755.4,286047001.8,N
1513394775.2,286047001.6,N
1513394795.1,286047003.8,N
1513394796.0,286047003.8,N
1513394815.8,286047003.8,N
1513394835.6,286047005.4,N
1513394855.5,286047005.0,N
1513394875.3,286047005.2,N
1513394895.2,286047004.0,N
1513394915.9,286047001.6,N
1513394935.7,286047004.0,N
1513394955.6,286047004.1,N
1513394975.4,286047002.3,N
1513394995.2,286047002.2,N
1513395015.1,286047001.4,N
1513395016.0,286047001.4,N
1513395035.8,286047004.1,N
1513395055.7,286047003.1,N
1513395075.5,286047005.6,N
1513395095.3,286047005.7,N
1513395115.2,286047002.9,N
1513395135.0,286047005.3,N
1513395135.9,286047005.3,N
1513395155.8,286047005.5,N
1513395175.6,286047004.6,N
1513395195.4,286047004.8,N
1513395215.3,286047004.8,N
1513395235.1,286047005.2,N
1513395255.8,286047005.6,Y
1513395275.7,286047004.3,P
1513395295.5,286047002.2,P
1513395315.4,286047001.7,N
1513395335.2,286047004.0,Y
1513395355.0,286047000.4,P
1513395355.9,286047000.4,N
1513395375.8,286047000.1,N
1513395395.6,286047002.8,N
1513395415.5,286047004.3,Y
1513395435.3,286047001.3,P
1513395455.1,286047004.4,P
1513395475.9,286047005.1,P
1513395495.7,286047006.0,Y
1513395515.6,286047003.8,P
1513395535.4,286047003.8,P
1513395555.2,286047005.9,P
1513395575.1,286047004.2,Y
1513395576.0,286047004.2,P
1513395595.8,286047000.6,P
1513395615.6,286047000.3,N
1513395635.5,286046999.8,N
1513395655.3,286047000.5,N
1513395675.2,286047000.5,N
1513395695.9,286047002.3,N
1513395715.7,286047002.6,N
1513395735.6,286047004.3,N
1513395755.4,286047001.3,N
1513395775.2,286047004.1,N
1513395795.1,286047003.7,N
1513395796.0,286047003.7,N
1513395815.8,286047004.1,N
1513395835.7,286047004.1,N
1513395855.5,286047004.3,N
1513395875.3,286047004.2,N
1513395895.2,286047003.1,N
1513395915.0,286047003.4,N
1513395915.9,286047003.4,N
1513395935.8,286047003.2,N
1513395955.6,286047003.7,N
1513395975.4,286047003.6,N
1513395995.3,286047004.3,N
1513396015.1,286047003.3,N
1513396035.8,286047004.8,Y
1513396055.7,286047004.2,P
1513396075.5,286047003.5,P
1513396095.4,286047001.9,P
1513396115.2,286047003.9,Y
1513396135.0,286047000.5,P
1513396135.9,286047000.5,N
1513396155.8,286046999.9,N
1513396175.6,286046999.8,N
1513396195.4,286046999.7,N
1513396215.3,286047001.6,N
1513396235.1,286047002.5,N
1513396255.9,286047002.2,N
1513396275.7,286047002.1,N
1513396295.5,286047001.3,N
1513396315.4,286047001.3,N
1513396335.2,286047004.1,Y
1513396355.1,286047003.9,P
1513396356.0,286047003.9,N
1513396375.8,286047001.4,N
1513396395.6,286047001.7,N
1513396415.5,286047004.1,Y
1513396435.3,286047000.6,P
1513396455.1,286047000.7,N
1513396475.9,286046998.2,N
1513396495.7,286046996.5,N
1513396515.6,286046999.4,N
1513396535.4,286046998.5,N
1513396555.2,286046998.6,N
1513396575.1,286046999.0,N
1513396576.0,286046999.0,N
1513396595.8,286046999.3,N
1513396615.7,286046999.0,N
1513396635.5,286047001.0,N
1513396655.3,286046998.9,N
1513396675.2,286047001.1,N
1513396695.9,286046998.6,N
1513396715.7,286046999.0,N
1513396735.6,286046998.3,N
1513396755.4,286046998.3,N
1513396775.3,286047000.7,N
1513396795.1,286046998.2,N
1513396796.0,286046998.2,N
